Hourly Data Report for December 14, 2010

IQALUIT CLIMATE
NUNAVUT

63°44'50.000" N
68°32'40.000" W
33.50 m
2402592
71321
XFB

Download Data

Hourly Data (December 2010)
Hourly Data Report for December 14, 2010
TIME
LST
Temp Definition
°C
Dew Point Definition
°C
Rel Hum Definition
%
Precip. Amount Definition
mm

Wind Dir Definition
10's deg

Wind Spd Definition
km/h
Visibility Definition
km
Stn Press Definition
kPa
Hmdx Definition


Wind Chill Definition


Weather Definition


00:00 -23.4 -25.2 85   35 9   102.29   -31 LegendNANA
01:00 -23.9 -26.1 82   32 13   102.33   -33 LegendNANA
02:00 -23.7 -25.8 83   33 11   102.41   -32 LegendNANA
03:00 -24.0 -26.0 84   33 4   102.57   -28 LegendNANA
04:00 -23.2 -25.2 84   33 7   102.67   -29 LegendNANA
05:00 -24.2 -26.4 82   32 17   102.72   -35 LegendNANA
06:00 -22.3 -24.4 83   32 7   102.80   -28 LegendNANA
07:00 -22.8 -25.1 81   31 17   102.78   -33 LegendNANA
08:00 -19.1 -23.1 71   10 7   102.87   -25 LegendNANA
09:00 -19.9 -22.4 80   33 19   102.94   -30 LegendNANA
10:00 -17.9 -20.6 79   2 7   102.98   -23 LegendNANA
11:00 -17.0 -19.1 84   29 7   103.03   -22 LegendNANA
12:00 -15.8 -18.1 82   5 6   103.06   -20 LegendNANA
13:00 -15.1 -17.5 82   7 17   103.13   -24 LegendNANA
14:00 -13.9 -16.5 81   6 33   103.11   -25 LegendNANA
15:00 -13.2 -15.9 80   6 39   103.08   -25 LegendNANA
16:00 -12.5 -15.8 76   6 33   103.13   -23 LegendNANA
17:00 -11.8 -15.3 75   6 35   103.13   -23 LegendNANA
18:00 -10.9 -14.6 74   7 33   103.07   -21 LegendNANA
19:00 -10.4 -14.3 73   9 28   103.10   -20 LegendNANA
20:00 -9.6 -13.4 74   9 26   103.08   -18 LegendNANA
21:00 -9.8 -12.0 84   9 22   103.12   -18 LegendNANA
22:00 -9.3 -11.1 87   9 22   103.06   -17 LegendNANA
23:00 -9.1 -10.9 87   8 26   102.98   -18 LegendNANA

Notes on Data Quality.

Legend

  • E = Estimated
  • M = Missing
  • NA = Not Available*
  • [empty] = Indicates an unobserved value
Date modified: